(108737) = 2001 OP34

Discovered at Palomar on 2001-07-19 by NEAT.

Orbit

Orbit type: Main Belt

Note: WebGL enabled browser required.

epoch2023-09-13.0
epoch JD2460200.5
perihelion date2020-12-11.09259
perihelion JD2459194.59259
argument of perihelion (°)337.32402
ascending node (°)45.27836
inclination (°)7.89710
eccentricity0.1148388
perihelion distance (AU)2.1368803
Tisserand w.r.t. Jupiter3.5
ΔV w.r.t. Earth (km/sec)9.4
semimajor axis (AU)2.4141143
mean anomaly (°)264.31701
mean daily motion (°/day)0.26276480
aphelion distance (AU)2.691
period (years)3.75
P-vector [x]0.92059642
P-vector [y]0.37604925
P-vector [z]0.10530521
Q-vector [x]-0.37811626
Q-vector [y]0.79093712
Q-vector [z]0.48108894
absolute magnitude16.3
phase slope0.15
uncertainty0
referenceMPEC 2023-X132
observations used741
oppositions17
arc length (days)10426
first opposition used1994
last opposition used2023
residual rms (arc-secs)0.78
perturbers coarse indicatorM-v
perturbers precise indicator003Ek
first observation date used1994-11-30.0
last observation date used2023-06-17.0
computer nameMPCLINUX
JD of orbit computation2456670.841711
perihelion JD uncertainty (days)8.8336E-05
argument of perihelion uncertainty (°)4.4446E-05
ascending node uncertainty (°)3.6805E-05
inclination uncertainty (°)6.8935E-06
eccentricity uncertainty 7.8937E-08
perihelion distance uncertainty (AU)1.8210E-07
Minimum Orbit Intersection Distances (in AU)
for orbit epoch: 2460200.5, reference: E2023-XD2
Mercury1.79278
Venus1.41196
Earth1.14228
Mars0.68717
Jupiter2.74807
Saturn6.71543
Uranus15.8139
Neptune27.6981

Observations

755 total observations over interval: 1994 11 30.10909 – 2023 06 17.355505
These data are available for download (format description).

Date (UT) J2000 RA J2000 Dec Magn Location Ref
1994 11 30.10909 02 15 55.36 +14 47 34.7 18.7 V 691 – Steward Observatory, Kitt Peak-Spacewatch MPS 34460
1994 11 30.13326 02 15 54.45 +14 47 36.4   691 – Steward Observatory, Kitt Peak-Spacewatch MPS 34460
1994 11 30.15825 02 15 53.46 +14 47 39.6   691 – Steward Observatory, Kitt Peak-Spacewatch MPS 34460
2000 03 09.45347 13 46 24.09 -04 19 05.5 19.1 V 691 – Steward Observatory, Kitt Peak-Spacewatch MPS 34461
2000 03 09.47441 13 46 23.44 -04 19 03.5 19.4 V 691 – Steward Observatory, Kitt Peak-Spacewatch MPS 34461
2000 03 09.49550 13 46 22.77 -04 19 00.0 20.3 V 691 – Steward Observatory, Kitt Peak-Spacewatch MPS 34461
2001 07 19.34554 21 42 41.78 -28 05 10.3 19.1   644 – Palomar Mountain/NEAT MPS 32485
2001 07 19.35618 21 42 41.32 -28 05 14.4 19.1   644 – Palomar Mountain/NEAT MPS 32485
2001 07 19.36656 21 42 40.87 -28 05 18.8 19.2   644 – Palomar Mountain/NEAT MPS 32485
2001 07 25.29821 21 38 12.38 -28 44 51.1 19.7   644 – Palomar Mountain/NEAT MPS 32485
2001 07 25.30883 21 38 11.83 -28 44 55.0 19.3   644 – Palomar Mountain/NEAT MPS 32485
2001 07 25.31952 21 38 11.30 -28 44 59.2 19.3   644 – Palomar Mountain/NEAT MPS 32485
2001 08 10.38919 21 22 39.48 -30 14 02.7 19.7   644 – Palomar Mountain/NEAT MPS 34461
2001 08 10.39944 21 22 38.85 -30 14 04.8 19.7   644 – Palomar Mountain/NEAT MPS 34461
2001 08 10.40978 21 22 38.13 -30 14 07.4 20.1   644 – Palomar Mountain/NEAT MPS 34461
2001 08 21.20648 21 11 32.00 -30 46 13.9 19.5   644 – Palomar Mountain/NEAT MPS 34461
2001 08 21.21792 21 11 31.33 -30 46 15.0 19.6   644 – Palomar Mountain/NEAT MPS 34461
2001 08 21.22934 21 11 30.59 -30 46 16.0 19.4   644 – Palomar Mountain/NEAT MPS 34461
2001 08 21.25887 21 11 28.79 -30 46 19.1 19.7   644 – Palomar Mountain/NEAT MPS 34461
2001 08 21.26952 21 11 28.13 -30 46 20.2 19.5   644 – Palomar Mountain/NEAT MPS 34461
2001 08 21.28017 21 11 27.50 -30 46 21.3 20.1   644 – Palomar Mountain/NEAT MPS 34461
2001 08 27.17696 21 05 59.69 -30 51 44.0 19.8   644 – Palomar Mountain/NEAT MPS 34461
2001 08 27.18805 21 05 59.09 -30 51 44.0 19.7   644 – Palomar Mountain/NEAT MPS 34461
2001 08 27.19902 21 05 58.48 -30 51 44.2 19.9   644 – Palomar Mountain/NEAT MPS 34461
2003 01 10.30304 08 24 58.85 +32 07 29.9 19.3   704 – Lincoln Laboratory ETS, New Mexico MPS 140966
2003 01 10.31921 08 24 57.80 +32 07 36.2 19.3   704 – Lincoln Laboratory ETS, New Mexico MPS 140966
2003 01 10.35132 08 24 55.58 +32 07 47.1 19.7   704 – Lincoln Laboratory ETS, New Mexico MPS 140966
2003 01 10.36724 08 24 54.51 +32 07 52.6 19.5   704 – Lincoln Laboratory ETS, New Mexico MPS 140966
2003 01 31.27294 08 00 51.98 +33 28 56.8 19.2   704 – Lincoln Laboratory ETS, New Mexico MPS 140966
2003 01 31.28785 08 00 51.03 +33 28 59.8 19.7   704 – Lincoln Laboratory ETS, New Mexico MPS 140966
2003 01 31.30264 08 00 50.04 +33 29 00.5 19.7   704 – Lincoln Laboratory ETS, New Mexico MPS 140966
2003 01 31.33234 08 00 47.91 +33 29 04.2 19.1   704 – Lincoln Laboratory ETS, New Mexico MPS 140966
2003 03 07.18727 07 40 18.26 +32 37 38.8 20.4   644 – Palomar Mountain/NEAT MPS 140966
2003 03 07.19788 07 40 18.26 +32 37 36.8 20.5   644 – Palomar Mountain/NEAT MPS 140966
2003 03 07.20837 07 40 18.21 +32 37 34.5 20.8   644 – Palomar Mountain/NEAT MPS 140966
2004 04 28.31926 14 52 28.98 -15 51 49.2 20.2 V 291 – LPL/Spacewatch II MPS 106132
2004 04 28.33054 14 52 28.27 -15 51 48.1 20.3 V 291 – LPL/Spacewatch II MPS 106132
2004 04 28.33898 14 52 27.74 -15 51 47.2 20.3 V 291 – LPL/Spacewatch II MPS 106132
2004 05 09.26578 14 41 07.63 -15 33 07.2 19.9 V 691 – Steward Observatory, Kitt Peak-Spacewatch MPS 106688
2004 05 09.29369 14 41 05.84 -15 33 04.2 19.8 V 691 – Steward Observatory, Kitt Peak-Spacewatch MPS 106688
2004 05 09.32221 14 41 04.02 -15 33 01.1 20.0 V 691 – Steward Observatory, Kitt Peak-Spacewatch MPS 106688
2004 05 13.27910 14 37 02.12 -15 26 04.4 20.2 V 291 – LPL/Spacewatch II MPS 106688
2004 05 13.28377 14 37 01.82 -15 26 03.9 20.2 V 291 – LPL/Spacewatch II MPS 106688
2004 05 13.28764 14 37 01.57 -15 26 03.4 20.2 V 291 – LPL/Spacewatch II MPS 106688
2005 08 27.40511 00 22 32.12 -10 20 50.3 18.8 R 699 – Lowell Observatory-LONEOS MPS 140062
2005 08 27.42350 00 22 31.56 -10 20 55.4   699 – Lowell Observatory-LONEOS MPS 140062
2005 08 27.44190 00 22 30.96 -10 21 00.5   699 – Lowell Observatory-LONEOS MPS 140062
2005 08 27.46032 00 22 30.31 -10 21 05.1   699 – Lowell Observatory-LONEOS MPS 140062
2005 09 03.28959 00 18 05.14 -10 49 13.7 18.7 V 703 – Catalina Sky Survey MPS 140966
2005 09 03.29602 00 18 04.82 -10 49 14.9 19.0 V 703 – Catalina Sky Survey MPS 140966
2005 09 03.30245 00 18 04.57 -10 49 16.3 18.8 V 703 – Catalina Sky Survey MPS 140966
2005 09 03.30888 00 18 04.24 -10 49 18.8 18.8 V 703 – Catalina Sky Survey MPS 140966
2005 09 13.29741 00 09 38.16 -11 28 42.2 18.4 V 703 – Catalina Sky Survey MPS 141605
2005 09 13.30661 00 09 37.69 -11 28 43.8 18.8 V 703 – Catalina Sky Survey MPS 141605
2005 09 13.31585 00 09 37.08 -11 28 46.0 18.7 V 703 – Catalina Sky Survey MPS 141605
2005 09 13.32510 00 09 36.57 -11 28 47.7 18.7 V 703 – Catalina Sky Survey MPS 141605
2005 09 25.26223 23 57 57.16 -12 01 57.1 18.7 V 703 – Catalina Sky Survey MPS 142504
2005 09 25.26867 23 57 56.73 -12 01 58.6 18.9 V 703 – Catalina Sky Survey MPS 142504
2005 09 25.27514 23 57 56.30 -12 01 58.7 18.4 V 703 – Catalina Sky Survey MPS 142504
2005 09 25.28157 23 57 55.94 -12 02 00.4 18.7 V 703 – Catalina Sky Survey MPS 142504
2005 09 26.11006 23 57 07.00 -12 03 20.4 18.4   I10 – CAO, San Pedro de Atacama (until 2012) MPS 142504
2005 09 26.12866 23 57 05.87 -12 03 22.0 18.3   I10 – CAO, San Pedro de Atacama (until 2012) MPS 142504
2005 09 26.14724 23 57 04.68 -12 03 23.3 18.8   I10 – CAO, San Pedro de Atacama (until 2012) MPS 142504
2005 09 27.26359 23 55 58.83 -12 05 10.9 18.9   704 – Lincoln Laboratory ETS, New Mexico MPS 142504
2005 09 27.27403 23 55 58.22 -12 05 12.6 19.5   704 – Lincoln Laboratory ETS, New Mexico MPS 142504
2005 09 27.28449 23 55 57.60 -12 05 14.5 19.5   704 – Lincoln Laboratory ETS, New Mexico MPS 142504
2005 09 27.29493 23 55 56.96 -12 05 15.6 19.1   704 – Lincoln Laboratory ETS, New Mexico MPS 142504
2005 09 27.30537 23 55 56.29 -12 05 15.5 19.3   704 – Lincoln Laboratory ETS, New Mexico MPS 142504
2005 10 03.27208 23 50 16.51 -12 09 58.1 18.3 V 703 – Catalina Sky Survey MPS 143483
2005 10 03.27860 23 50 16.08 -12 09 57.2 18.7 V 703 – Catalina Sky Survey MPS 143483
2005 10 03.28509 23 50 15.75 -12 09 57.8 18.6 V 703 – Catalina Sky Survey MPS 143483
2005 10 03.29162 23 50 15.36 -12 09 57.5 18.4 V 703 – Catalina Sky Survey MPS 143483
2005 10 07.20241 23 46 49.58 -12 08 44.2 18.7 R 699 – Lowell Observatory-LONEOS MPS 143483
2005 10 07.24079 23 46 47.55 -12 08 42.0   699 – Lowell Observatory-LONEOS MPS 143483
2005 10 07.26510 23 46 46.26 -12 08 40.7   699 – Lowell Observatory-LONEOS MPS 143483
2005 10 07.28828 23 46 45.01 -12 08 40.6   699 – Lowell Observatory-LONEOS MPS 143483
2005 10 10.20461 23 44 23.74 -12 05 22.9 18.8 V 703 – Catalina Sky Survey MPS 143483
2005 10 10.21384 23 44 23.28 -12 05 21.5 19.1 V 703 – Catalina Sky Survey MPS 143483
2005 10 10.22307 23 44 22.81 -12 05 20.7 18.8 V 703 – Catalina Sky Survey MPS 143483
2005 10 10.23231 23 44 22.38 -12 05 21.7 18.8 V 703 – Catalina Sky Survey MPS 143483
2005 10 22.20828 23 36 59.58 -11 31 19.4 19.2 V 703 – Catalina Sky Survey MPS 150518
2005 10 22.21839 23 36 59.43 -11 31 16.8 18.9 V 703 – Catalina Sky Survey MPS 150518
2005 10 22.22851 23 36 59.04 -11 31 13.9 19.7 V 703 – Catalina Sky Survey MPS 150518
2005 10 22.23859 23 36 58.71 -11 31 12.6 19.1 V 703 – Catalina Sky Survey MPS 150518
2005 10 31.16160 23 34 17.46 -10 46 00.2 19.1 R 699 – Lowell Observatory-LONEOS MPS 149053
2005 10 31.18164 23 34 17.15 -10 45 51.3   699 – Lowell Observatory-LONEOS MPS 149053
2005 10 31.20172 23 34 16.92 -10 45 44.1   699 – Lowell Observatory-LONEOS MPS 149053
2005 10 31.22179 23 34 16.71 -10 45 37.6   699 – Lowell Observatory-LONEOS MPS 149053
2007 01 28.42073 10 40 42.87 +21 37 21.9 20.1 V 691 – Steward Observatory, Kitt Peak-Spacewatch MPS 198542
2007 01 28.43869 10 40 42.05 +21 37 28.7 20.1 V 691 – Steward Observatory, Kitt Peak-Spacewatch MPS 198542
